| time (UTC) | temp F | wind direction | speed MPH | gust MPH | rain 1hr in | rain 24hr in | rain mn in | humidity % | barometer mb |
| 20260502163032 | 71 | 360 | 0.0 | 4.0 | 0.00 | 0.00 | 0.00 | 54 | 1021.6 |
| 20260502161529 | 70 | 360 | 1.0 | 3.0 | 0.00 | 0.00 | 0.00 | 48 | 1021.5 |
| 20260502151518 | 68 | 181 | 2.0 | 6.0 | 0.00 | 0.00 | 0.00 | 50 | 1021.6 |
| 20260502123036 | 50 | 74 | 0.0 | 1.0 | 0.00 | 0.00 | 0.00 | 74 | 1021.3 |
| 20260502121533 | 49 | 41 | 0.0 | 1.0 | 0.00 | 0.00 | 0.00 | 75 | 1021.1 |
| 20260502114530 | 50 | 40 | 0.0 | 2.0 | 0.00 | 0.00 | 0.00 | 75 | 1021.0 |
| 20260502113028 | 50 | 40 | 0.0 | 1.0 | 0.00 | 0.00 | 0.00 | 75 | 1021.0 |
| 20260502111527 | 50 | 39 | 0.0 | 0.0 | 0.00 | 0.00 | 0.00 | 74 | 1021.2 |
| 20260502110027 | 50 | 27 | 0.0 | 5.0 | 0.00 | 0.00 | 0.00 | 76 | 1021.3 |
| 20260502104537 | 49 | 33 | 2.0 | 5.0 | 0.00 | 0.00 | 0.00 | 79 | 1021.2 |
| 20260502103020 | 48 | 119 | 0.0 | 0.0 | 0.00 | 0.00 | 0.00 | 79 | 1020.6 |
| 20260502101518 | 48 | 119 | 0.0 | 0.0 | 0.00 | 0.00 | 0.00 | 78 | 1020.4 |
| 20260502091511 | 49 | 119 | 0.0 | 0.0 | 0.00 | 0.00 | 0.00 | 76 | 1019.6 |
| 20260502080108 | 52 | 119 | 0.0 | 0.0 | 0.00 | 0.00 | 0.00 | 71 | 1019.4 |
| 20260502070054 | 53 | 119 | 0.0 | 0.0 | 0.00 | 0.00 | 0.00 | 68 | 1019.5 |
| 20260502064550 | 53 | 119 | 0.0 | 0.0 | 0.00 | 0.00 | 0.00 | 69 | 1019.6 |
| 20260502063051 | 53 | 119 | 0.0 | 1.0 | 0.00 | 0.00 | 0.00 | 68 | 1019.7 |
| 20260502061548 | 54 | 119 | 0.0 | 0.0 | 0.00 | 0.00 | 0.00 | 66 | 1019.7 |
| 20260502060046 | 54 | 119 | 0.0 | 1.0 | 0.00 | 0.00 | 0.00 | 66 | 1019.6 |
| 20260502054547 | 54 | 119 | 1.0 | 2.0 | 0.00 | 0.00 | 0.00 | 65 | 1019.6 |
| 20260502053052 | 54 | 119 | 1.0 | 2.0 | 0.00 | 0.00 | 0.00 | 65 | 1019.6 |
| 20260502051554 | 55 | 119 | 0.0 | 2.0 | 0.00 | 0.00 | 0.00 | 66 | 1019.6 |
| 20260502050049 | 55 | 119 | 0.0 | 0.0 | 0.00 | 0.00 | 0.00 | 66 | 1019.6 |
| 20260502044541 | 56 | 119 | 0.0 | 0.0 | 0.00 | 0.00 | 0.00 | 65 | 1019.7 |
| 20260502043038 | 57 | 360 | 0.0 | 0.0 | 0.00 | 0.00 | 0.00 | 64 | 1019.6 |
| 20260502041539 | 57 | 360 | 0.0 | 0.0 | 0.00 | 0.00 | 0.00 | 64 | 1019.5 |
| 20260502040036 | 58 | 360 | 0.0 | 2.0 | 0.00 | 0.00 | 0.00 | 61 | 1019.4 |
| 20260502034537 | 59 | 360 | 0.0 | 2.0 | 0.00 | 0.00 | 0.00 | 59 | 1019.3 |
| 20260502033039 | 59 | 360 | 0.0 | 2.0 | 0.00 | 0.00 | 0.00 | 58 | 1019.3 |
| 20260502031538 | 60 | 120 | 0.0 | 2.0 | 0.00 | 0.00 | 0.00 | 57 | 1019.2 |
| 20260502030035 | 60 | 360 | 0.0 | 2.0 | 0.00 | 0.00 | 0.00 | 55 | 1019.1 |
| 20260502024536 | 60 | 360 | 0.0 | 3.0 | 0.00 | 0.00 | 0.00 | 54 | 1019.1 |
| 20260502023033 | 61 | 360 | 0.0 | 1.0 | 0.00 | 0.00 | 0.00 | 54 | 1019.0 |
| 20260502021534 | 61 | 360 | 0.0 | 1.0 | 0.00 | 0.00 | 0.00 | 53 | 1018.8 |
| 20260502020032 | 62 | 360 | 0.0 | 2.0 | 0.00 | 0.00 | 0.00 | 52 | 1018.8 |
| 20260502014534 | 62 | 360 | 0.0 | 2.0 | 0.00 | 0.00 | 0.00 | 52 | 1018.5 |
| 20260502013031 | 63 | 113 | 0.0 | 2.0 | 0.00 | 0.00 | 0.00 | 50 | 1018.3 |
| 20260502011550 | 64 | 113 | 0.0 | 2.0 | 0.00 | 0.00 | 0.00 | 49 | 1017.9 |
| 20260502010030 | 64 | 360 | 0.0 | 3.0 | 0.00 | 0.00 | 0.00 | 49 | 1017.8 |
| 20260502004550 | 65 | 72 | 0.0 | 2.0 | 0.00 | 0.00 | 0.00 | 47 | 1017.6 |
| 20260502003029 | 65 | 360 | 0.0 | 3.0 | 0.00 | 0.00 | 0.00 | 46 | 1017.5 |
| 20260502001528 | 65 | 360 | 0.0 | 2.0 | 0.00 | 0.00 | 0.00 | 45 | 1017.5 |
| 20260502000028 | 66 | 360 | 1.0 | 3.0 | 0.00 | 0.00 | 0.00 | 44 | 1017.4 |
| 20260501234536 | 66 | 360 | 1.0 | 4.0 | 0.00 | 0.00 | 0.00 | 43 | 1017.2 |
| 20260501233027 | 66 | 360 | 0.0 | 4.0 | 0.00 | 0.00 | 0.00 | 45 | 1017.2 |
| 20260501231536 | 67 | 360 | 2.0 | 6.0 | 0.00 | 0.00 | 0.00 | 43 | 1017.1 |
| 20260501230030 | 67 | 360 | 1.0 | 5.0 | 0.00 | 0.00 | 0.00 | 43 | 1017.0 |
| 20260501224525 | 68 | 360 | 1.0 | 5.0 | 0.00 | 0.00 | 0.00 | 43 | 1016.9 |
| 20260501223025 | 68 | 360 | 1.0 | 5.0 | 0.00 | 0.00 | 0.00 | 39 | 1016.7 |
| 20260501221524 | 68 | 360 | 1.0 | 5.0 | 0.00 | 0.00 | 0.00 | 40 | 1016.7 |
| 20260501220037 | 68 | 360 | 1.0 | 6.0 | 0.00 | 0.00 | 0.00 | 37 | 1016.7 |
| 20260501214525 | 69 | 360 | 2.0 | 6.0 | 0.00 | 0.00 | 0.00 | 39 | 1016.6 |
| 20260501213029 | 69 | 360 | 2.0 | 6.0 | 0.00 | 0.00 | 0.00 | 40 | 1016.6 |
| 20260501211522 | 69 | 360 | 2.0 | 8.0 | 0.00 | 0.00 | 0.00 | 40 | 1016.7 |
| 20260501210019 | 68 | 360 | 1.0 | 8.0 | 0.00 | 0.00 | 0.00 | 41 | 1016.9 |
| 20260501204517 | 68 | 360 | 2.0 | 5.0 | 0.00 | 0.00 | 0.00 | 42 | 1017.1 |
| 20260501203018 | 68 | 360 | 2.0 | 8.0 | 0.00 | 0.00 | 0.00 | 39 | 1017.2 |
| 20260501201513 | 68 | 360 | 1.0 | 8.0 | 0.00 | 0.00 | 0.00 | 44 | 1017.4 |
| 20260501200012 | 68 | 96 | 2.0 | 7.0 | 0.00 | 0.00 | 0.00 | 44 | 1017.5 |
| 20260501194516 | 68 | 355 | 1.0 | 7.0 | 0.00 | 0.00 | 0.00 | 43 | 1017.8 |
| 20260501193022 | 69 | 126 | 2.0 | 9.0 | 0.00 | 0.00 | 0.00 | 44 | 1017.9 |
| 20260501191509 | 69 | 20 | 2.0 | 11.0 | 0.00 | 0.00 | 0.00 | 45 | 1018.0 |
| 20260501190030 | 69 | 115 | 1.0 | 7.0 | 0.00 | 0.00 | 0.00 | 46 | 1018.3 |
| 20260501184510 | 68 | 24 | 2.0 | 7.0 | 0.00 | 0.00 | 0.00 | 45 | 1018.2 |
| 20260501183015 | 68 | 15 | 2.0 | 8.0 | 0.00 | 0.00 | 0.00 | 45 | 1018.7 |
| 20260501181506 | 66 | 88 | 2.0 | 9.0 | 0.00 | 0.00 | 0.00 | 49 | 1019.0 |
| 20260501180005 | 67 | 360 | 2.0 | 6.0 | 0.00 | 0.00 | 0.00 | 50 | 1019.0 |